Simultaneous Nadir Overpasses (SNOs) Predictions

Prediction of SNOs between GOES-16 and NOAA-20 Satellite Orbit:

Table of predicted SNOs for the next 14.0 days since TLE Epoch: 5/22/2020
Index Date Time (GOES-16) GOES-16 Lat,Lon NOAA-20 Lat,Lon Distance(km) Time Diff (sec)
1 05/22/2020 18:27:03 0.01, -75.20 -0.11, -75.81 68.73 80
2 05/23/2020 18:10:57 0.01, -75.20 0.87, -71.27 447.65 80
3 05/25/2020 06:32:45 -0.01, -75.19 0.30, -76.54 153.57 80
4 05/26/2020 06:11:20 -0.01, -75.19 -0.74, -72.01 362.79 80
5 05/27/2020 18:33:15 0.01, -75.20 -0.49, -77.31 240.88 80
6 05/28/2020 18:17:11 0.01, -75.20 0.55, -72.78 275.94 80
7 05/30/2020 06:38:58 -0.00, -75.21 0.62, -78.05 324.28 80
8 05/31/2020 06:17:33 -0.00, -75.21 -0.36, -73.52 192.78 80
9 06/01/2020 18:39:29 0.00, -75.23 -0.80, -78.83 409.99 80
10 06/02/2020 18:23:25 0.00, -75.24 0.24, -74.30 107.59 80
11 06/04/2020 06:45:11 0.00, -75.25 0.99, -79.56 491.46 80
12 06/05/2020 06:23:46 0.01, -75.26 -0.05, -75.03 26.19 80




NCC Satellite Simultaneous Nadir Overpasses (SNOs) Prediction Service
